Location: Street
(51.1247°N, 2.7429°W)
Time: 03:58:40
(UTC+00:00)

Transit 2A Rocket - Pass Details

Date: 05 December 2020
Orbit: 592 x 911 km, 66.7° (Epoch: 16 January)

Event Time Altitude Azimuth Distance (km) Brightness Sun altitude
Exits shadow 04:31:13 14° 11° (N) 2,040 7.3 -31.3°
Drops below altitude 10° 04:32:33 10° 25° (NNE) 2,252 7.7 -31.1°
Sets 04:35:48 0° 48° (NE) 3,103 8.8 -30.6°
